Location: Sternwarte-Kraichtal
(49.1689°N, 8.6996°E)
Time: 21:12:34
(UTC+02:00)

Vanguard 2 Rocket - All Passes

Search period start: 26 May 2022 00:00
Search period end: 05 June 2022 00:00
Orbit: 553 x 3323 km, 32.9° (Epoch: 25 May)

Date Brightness Start Highest point End Pass type
(mag) Time Alt. Az. Time Alt. Az. Time Alt. Az.
26 May - 11:59:01 10° S 12:08:48 16° SE 12:17:44 10° ESE daylight
26 May - 14:07:44 10° SSW 14:23:32 32° SSE 14:35:32 10° ESE daylight
26 May - 16:22:49 10° WSW 16:38:29 39° S 16:48:44 10° ESE daylight
26 May - 18:40:28 10° WSW 18:52:07 30° SSW 18:59:42 10° SSE daylight
26 May - 21:02:49 10° SW 21:03:40 10° SW 21:04:28 10° SW daylight
27 May - 11:05:06 10° SE 11:07:49 10° SE 11:10:30 10° SE daylight
27 May - 13:07:04 10° SSW 13:22:09 28° SSE 13:34:38 10° ESE daylight
27 May - 15:20:35 10° SW 15:37:20 39° S 15:48:58 10° ESE daylight
27 May - 17:37:36 10° WSW 17:51:46 36° SSW 18:00:51 10° SE daylight
27 May - 19:56:44 10° WSW 20:04:11 18° SW 20:09:43 10° S daylight
28 May - 12:07:20 10° S 12:20:48 23° SE 12:32:54 10° ESE daylight
28 May - 14:18:49 10° SW 14:35:54 38° SSE 14:48:47 10° ESE daylight
28 May - 16:34:53 10° WSW 16:50:58 41° S 17:01:34 10° ESE daylight
28 May - 18:53:13 10° W 19:04:21 26° SSW 19:11:54 10° SSE daylight
29 May - 11:09:02 10° S 11:19:38 17° SE 11:29:48 10° ESE daylight
29 May - 13:17:40 10° SSW 13:34:21 34° SSE 13:48:06 10° ESE daylight
29 May - 15:32:25 10° WSW 15:49:47 43° S 16:01:53 10° ESE daylight
29 May - 17:50:05 10° WSW 18:04:05 34° SSW 18:13:18 10° SE daylight
29 May - 20:10:52 10° WSW 20:16:07 14° SW 20:20:24 10° SSW daylight
30 May - 10:14:27 10° SE 10:18:43 11° SE 10:23:00 10° ESE daylight
30 May - 12:17:16 10° SSW 12:32:48 30° SSE 12:46:48 10° E daylight
30 May - 14:30:24 10° SW 14:48:17 42° S 15:01:47 10° ESE daylight
30 May - 16:47:10 10° WSW 17:03:21 40° SSW 17:14:11 10° SE daylight
30 May - 19:06:19 10° W 19:16:23 22° SW 19:23:37 10° S daylight
31 May - 11:17:50 10° S 11:31:25 24° SE 11:44:39 10° E daylight
31 May - 13:28:54 10° SW 13:46:34 40° SSE 14:01:14 10° ESE daylight
31 May - 15:44:33 10° WSW 16:02:10 44° S 16:14:37 10° ESE daylight
31 May - 18:02:46 10° W 18:16:14 30° SSW 18:25:27 10° SSE daylight
01 Jun - 10:19:49 10° S 10:30:19 18° SE 10:41:05 10° ESE daylight
01 Jun - 12:28:06 10° SSW 12:44:51 36° SSE 13:00:08 10° E daylight
01 Jun - 14:42:19 10° WSW 15:00:37 45° S 15:14:36 10° ESE daylight
01 Jun - 16:59:38 10° W 17:15:35 37° SSW 17:26:34 10° SE daylight
01 Jun - 19:20:04 10° WSW 19:28:12 17° SW 19:34:32 10° S daylight
02 Jun - 09:25:38 10° SE 09:29:35 11° SE 09:33:38 10° ESE daylight
02 Jun - 11:28:03 10° SSW 11:43:15 30° SSE 11:58:23 10° E daylight
02 Jun - 13:40:37 10° SW 13:58:49 44° S 14:14:08 10° ESE daylight
02 Jun - 15:56:51 10° WSW 16:14:28 42° SSW 16:27:09 10° SE daylight
02 Jun - 18:15:46 10° W 18:28:10 25° SW 18:37:08 10° SSE daylight
03 Jun - 10:28:58 10° S 10:41:57 24° SE 10:55:44 10° E daylight
03 Jun - 12:39:30 10° SW 12:56:57 41° SSE 13:13:09 10° ESE daylight
03 Jun - 14:54:30 10° WSW 15:12:56 46° S 15:27:15 10° ESE daylight
03 Jun - 17:12:18 10° W 17:27:39 33° SSW 17:38:38 10° SSE daylight
03 Jun - 19:35:36 10° WSW 19:39:48 12° SW 19:43:32 10° SW daylight
04 Jun - 09:31:19 10° SSE 09:41:02 17° SE 09:51:39 10° E daylight
04 Jun - 11:39:05 10° SSW 11:55:10 36° SSE 12:11:35 10° E daylight
04 Jun - 13:52:39 10° WSW 14:11:05 47° S 14:26:50 10° ESE daylight
04 Jun - 16:09:22 10° W 16:26:38 39° SSW 16:39:27 10° SE daylight
04 Jun - 18:29:20 10° W 18:39:53 20° SW 18:48:05 10° S daylight
